| time (UTC) | temp F | wind direction | speed MPH | gust MPH | rain 1hr in | rain 24hr in | rain mn in | humidity % | barometer mb |
| 20260505013017 | 58 | 222 | 2.0 | 12.0 | 0.00 | 0.00 | 0.00 | 55 | 1010.0 |
| 20260505011517 | 59 | 198 | 5.0 | 13.0 | 0.00 | 0.00 | 0.00 | 54 | 1009.7 |
| 20260505010016 | 59 | 200 | 3.0 | 13.0 | 0.00 | 0.00 | 0.00 | 53 | 1009.4 |
| 20260505004514 | 60 | 189 | 2.0 | 10.0 | 0.00 | 0.00 | 0.00 | 52 | 1009.0 |
| 20260505003014 | 61 | 198 | 3.0 | 10.0 | 0.00 | 0.00 | 0.00 | 50 | 1008.7 |
| 20260505001514 | 61 | 165 | 2.0 | 9.0 | 0.00 | 0.00 | 0.00 | 49 | 1008.3 |
| 20260505000014 | 62 | 176 | 3.0 | 11.0 | 0.00 | 0.00 | 0.00 | 48 | 1008.0 |
| 20260504234513 | 63 | 274 | 3.0 | 16.0 | 0.00 | 0.00 | 0.00 | 47 | 1007.8 |
| 20260504233012 | 63 | 172 | 2.0 | 11.0 | 0.00 | 0.00 | 0.00 | 46 | 1007.6 |
| 20260504231512 | 64 | 174 | 2.0 | 9.0 | 0.00 | 0.00 | 0.00 | 46 | 1007.3 |
| 20260504230012 | 65 | 204 | 3.0 | 8.0 | 0.00 | 0.00 | 0.00 | 44 | 1007.1 |
| 20260504224517 | 66 | 187 | 5.0 | 15.0 | 0.00 | 0.00 | 0.00 | 42 | 1006.8 |
| 20260504223010 | 67 | 252 | 2.0 | 12.0 | 0.00 | 0.00 | 0.00 | 40 | 1006.7 |
| 20260504221509 | 67 | 306 | 4.0 | 11.0 | 0.00 | 0.00 | 0.00 | 38 | 1006.6 |
| 20260504220010 | 68 | 217 | 6.0 | 16.0 | 0.00 | 0.00 | 0.00 | 37 | 1006.5 |
| 20260504214509 | 70 | 308 | 1.0 | 11.0 | 0.00 | 0.00 | 0.00 | 33 | 1006.5 |
| 20260504213008 | 71 | 211 | 2.0 | 7.0 | 0.00 | 0.00 | 0.00 | 32 | 1006.4 |
| 20260504211507 | 71 | 55 | 3.0 | 10.0 | 0.00 | 0.00 | 0.00 | 31 | 1006.3 |
| 20260504210011 | 72 | 293 | 1.0 | 8.0 | 0.00 | 0.00 | 0.00 | 30 | 1006.4 |
| 20260504204510 | 72 | 27 | 1.0 | 9.0 | 0.00 | 0.00 | 0.00 | 31 | 1006.4 |
| 20260504203005 | 71 | 203 | 5.0 | 13.0 | 0.00 | 0.00 | 0.00 | 30 | 1006.2 |
| 20260504201505 | 72 | 192 | 0.0 | 7.0 | 0.00 | 0.00 | 0.00 | 31 | 1006.6 |
| 20260504200004 | 71 | 226 | 1.0 | 7.0 | 0.00 | 0.00 | 0.00 | 30 | 1006.7 |
| 20260504194501 | 72 | 279 | 4.0 | 10.0 | 0.00 | 0.00 | 0.00 | 28 | 1006.6 |
| 20260504193100 | 72 | 204 | 5.0 | 11.0 | 0.00 | 0.00 | 0.00 | 27 | 1006.6 |
| 20260504191612 | 72 | 302 | 2.0 | 15.0 | 0.00 | 0.00 | 0.00 | 27 | 1006.6 |
| 20260504190056 | 72 | 220 | 1.0 | 11.0 | 0.00 | 0.00 | 0.00 | 27 | 1006.9 |
| 20260504184555 | 72 | 103 | 5.0 | 14.0 | 0.00 | 0.00 | 0.00 | 27 | 1006.9 |
| 20260504183054 | 72 | 305 | 1.0 | 16.0 | 0.00 | 0.00 | 0.00 | 26 | 1007.1 |
| 20260504181552 | 72 | 194 | 1.0 | 15.0 | 0.00 | 0.00 | 0.00 | 29 | 1007.2 |
| 20260504180049 | 71 | 304 | 1.0 | 22.0 | 0.00 | 0.00 | 0.00 | 29 | 1007.3 |
| 20260504174553 | 71 | 195 | 2.0 | 13.0 | 0.00 | 0.00 | 0.00 | 29 | 1007.5 |
| 20260504173044 | 71 | 316 | 1.0 | 12.0 | 0.00 | 0.00 | 0.00 | 29 | 1007.5 |
| 20260504171543 | 70 | 219 | 3.0 | 10.0 | 0.00 | 0.00 | 0.00 | 32 | 1007.6 |
| 20260504120105 | 52 | 220 | 0.0 | 6.0 | 0.00 | 0.03 | 0.00 | 53 | 1010.9 |
| 20260504081525 | 42 | 206 | 0.0 | 1.0 | 0.00 | 0.03 | 0.00 | 71 | 1010.5 |
| 20260504044556 | 37 | 214 | 0.0 | 1.0 | 0.00 | 0.03 | 0.00 | 75 | 1010.4 |
| 20260504043111 | 36 | 214 | 0.0 | 1.0 | 0.00 | 0.03 | 0.00 | 78 | 1010.4 |
| 20260504041549 | 36 | 216 | 0.0 | 1.0 | 0.00 | 0.03 | 0.00 | 79 | 1010.3 |
| 20260504040047 | 36 | 218 | 0.0 | 1.0 | 0.00 | 0.03 | 0.00 | 81 | 1010.1 |
| 20260504034551 | 35 | 216 | 0.0 | 1.0 | 0.00 | 0.03 | 0.03 | 81 | 1009.9 |
| 20260504033044 | 36 | 212 | 0.0 | 1.0 | 0.00 | 0.03 | 0.03 | 80 | 1009.8 |
| 20260504031550 | 36 | 224 | 0.0 | 0.0 | 0.00 | 0.03 | 0.03 | 78 | 1009.8 |
| 20260504030055 | 37 | 221 | 0.0 | 1.0 | 0.00 | 0.03 | 0.03 | 76 | 1009.7 |
| 20260504024540 | 37 | 215 | 0.0 | 1.0 | 0.00 | 0.03 | 0.03 | 76 | 1009.7 |
| 20260504023036 | 38 | 215 | 0.0 | 1.0 | 0.00 | 0.03 | 0.03 | 73 | 1009.7 |
| 20260504021541 | 39 | 211 | 0.0 | 1.0 | 0.00 | 0.03 | 0.03 | 72 | 1009.6 |
| 20260504020037 | 40 | 216 | 0.0 | 2.0 | 0.00 | 0.03 | 0.03 | 67 | 1009.6 |
| 20260504014528 | 41 | 214 | 0.0 | 1.0 | 0.00 | 0.03 | 0.03 | 66 | 1009.5 |